Wappingers Falls, NY

11:30 PM EDT on August 31, 2016 (GMT -0400)
Dutchess County

Weather History for KPOU - November, 2014

Change the Weather History Date:

Sunday, November 2, 2014

  Actual Average Record
Temperature  
Mean Temperature 43 °F 46 °F  
Max Temperature 48 °F 57 °F 80 °F (1950)
Min Temperature 38 °F 34 °F 19 °F (1976)
Degree Days  
Heating Degree Days 22 19  
Month to date heating degree days 42 38  
Since 1 July heating degree days 451 614  
Cooling Degree Days 0 0  
Month to date cooling degree days 0 0  
Year to date cooling degree days 696 672  
Moisture  
Dew Point 25 °F    
Average Humidity 55    
Maximum Humidity 79    
Minimum Humidity 31    
Precipitation  
Precipitation T in 0.12 in 1.94 in (1954)
Month to date precipitation 0.10 0.24  
Year to date precipitation 29.05 39.77  
Sea Level Pressure  
Sea Level Pressure 29.88 in    
Wind  
Wind Speed 16 mph (NNW)    
Max Wind Speed 31 mph    
Max Gust Speed 46 mph    
Visibility 10 miles    
Events Rain    
T = Trace of Precipitation, MM = Missing Value Source: NWS Daily Summary

Daily Weather History Graph

Daily Weather History Graph

Search for Another Location

Airport or City:

Trip Planner

Search our weather history database for the weather conditions in past years. The results will help you decide how hot, cold, wet, or windy it might be!

Date:

Astronomy

Nov. 02, 2014 Rise Set
Actual Time 6:28 AM EST 4:48 PM EST
Civil Twilight 5:59 AM EST 5:17 PM EST
Nautical Twilight 5:26 AM EST 5:50 PM EST
Astronomical Twilight 4:54 AM EST 6:22 PM EST
Moon 2:22 PM EST (11/2) 1:24 AM EST (11/2)
Length of Visible Light 11h 18m
Length of Day
10h 20m
Waxing Gibbous, 78% of the Moon is Illuminated
Nov 2
Waxing Gibbous
Nov 6
Full
Nov 14
Last Quarter
Nov 22
New
Nov 29
First Quarter

Hourly Weather History & Observations

Time (EST) Temp. Windchill Dew Point Humidity Pressure Visibility Wind Dir Wind Speed Gust Speed Precip Events Conditions
12:31 AM 39.9 °F 31.8 °F 34.0 °F 79% 29.85 in 10.0 mi North 15.0 mph 24.2 mph N/A   Overcast
12:53 AM 41.0 °F 32.2 °F 34.0 °F 76% 29.85 in 10.0 mi North 18.4 mph 26.5 mph N/A   Overcast
1:53 AM 41.0 °F 32.8 °F 33.1 °F 73% 29.85 in 10.0 mi North 16.1 mph 28.8 mph N/A   Overcast
1:53 AM 39.9 °F 31.1 °F 33.1 °F 77% 29.83 in 10.0 mi North 17.3 mph 29.9 mph N/A   Overcast
2:53 AM 41.0 °F 32.8 °F 30.9 °F 67% 29.83 in 10.0 mi North 16.1 mph 28.8 mph N/A   Overcast
3:53 AM 41.0 °F 31.9 °F 30.0 °F 65% 29.83 in 10.0 mi North 19.6 mph 31.1 mph N/A   Overcast
4:28 AM 39.9 °F 30.8 °F 28.9 °F 65% 29.82 in 10.0 mi North 18.4 mph 34.5 mph N/A   Overcast
4:53 AM 39.9 °F 29.5 °F 28.9 °F 65% 29.81 in 10.0 mi North 24.2 mph 39.1 mph N/A   Overcast
5:53 AM 41.0 °F 32.2 °F 27.0 °F 57% 29.82 in 10.0 mi NNW 18.4 mph 38.0 mph N/A   Overcast
6:53 AM 41.0 °F 30.9 °F 25.0 °F 53% 29.85 in 10.0 mi North 24.2 mph 38.0 mph N/A   Overcast
7:53 AM 41.0 °F 30.9 °F 25.0 °F 53% 29.86 in 10.0 mi North 24.2 mph 35.7 mph N/A   Mostly Cloudy
8:53 AM 42.1 °F 33.9 °F 25.0 °F 51% 29.87 in 10.0 mi North 17.3 mph 35.7 mph 0.00 in Rain Light Rain
9:53 AM 43.0 °F 34.5 °F 24.1 °F 47% 29.86 in 10.0 mi NNW 19.6 mph 35.7 mph 0.00 in Rain Light Rain
10:53 AM 44.1 °F 36.2 °F 24.1 °F 45% 29.87 in 10.0 mi North 18.4 mph 32.2 mph 0.00 in   Overcast
11:53 AM 45.0 °F 36.6 °F 24.1 °F 44% 29.86 in 10.0 mi NNW 21.9 mph 31.1 mph 0.00 in   Mostly Cloudy
12:53 PM 46.9 °F - 21.9 °F 37% 29.87 in 10.0 mi NNW 15.0 mph 27.6 mph N/A   Partly Cloudy
1:53 PM 48.0 °F - 21.9 °F 36% 29.87 in 10.0 mi North 15.0 mph 24.2 mph N/A   Partly Cloudy
2:53 PM 48.0 °F - 21.9 °F 36% 29.88 in 10.0 mi NNW 15.0 mph 29.9 mph N/A   Partly Cloudy
3:53 PM 46.9 °F - 21.9 °F 37% 29.89 in 10.0 mi NW 11.5 mph - N/A   Partly Cloudy
4:53 PM 45.0 °F 40.1 °F 18.0 °F 34% 29.92 in 10.0 mi NW 9.2 mph 19.6 mph N/A   Clear
5:53 PM 44.1 °F 39.0 °F 16.0 °F 32% 29.95 in 10.0 mi NW 9.2 mph - N/A   Clear
6:53 PM 43.0 °F 35.7 °F 16.0 °F 34% 29.96 in 10.0 mi NW 15.0 mph 23.0 mph N/A   Clear
7:53 PM 42.1 °F 36.1 °F 16.0 °F 35% 29.98 in 10.0 mi NW 10.4 mph 23.0 mph N/A   Clear
8:53 PM 41.0 °F 33.5 °F 18.0 °F 40% 29.99 in 10.0 mi WNW 13.8 mph 19.6 mph N/A   Clear
9:53 PM 42.1 °F 36.6 °F 18.0 °F 38% 30.00 in 10.0 mi NNW 9.2 mph 19.6 mph N/A   Clear
10:53 PM 41.0 °F 33.1 °F 21.0 °F 45% 30.01 in 10.0 mi NW 15.0 mph 20.7 mph N/A   Clear